Theta_e
298 298 297 297 297 297 296 296 296 296 296 296 296 296 295 295 295 295 294 294 294 294 294 294 294 293 292 291 290 289 289 288 288 288 287 287 287 287 287 287 287 286 286 286 286 286 285 285 285 285 285 284 284 284 284 284 284 284 283 283 283 283 282 282 282 283 284 284 282 282 282 282 281 281 282 282 282 281 281 281 281 281 281 281 280
298 297 297 297 297 296 296 296 296 295 295 295 295 295 295 295 295 295 294 294 294 294 294 294 293 293 292 291 290 289 288 288 288 288 288 287 287 287 287 287 286 286 286 286 286 285 285 285 285 284 284 284 284 284 284 284 283 283 283 283 283 283 282 282 281 282 283 284 282 281 282 281 281 281 281 281 281 281 281 281 281 281 281 281 280
298 297 297 297 296 296 296 296 296 295 295 295 295 295 295 295 295 294 294 294 294 294 294 294 293 292 291 290 289 288 288 288 288 288 287 287 287 287 287 287 286 286 286 286 286 285 285 285 284 284 284 284 284 284 283 283 283 283 283 283 283 283 282 281 281 281 281 283 282 281 281 281 281 280 281 280 280 280 280 280 280 280 280 280 280
298 297 297 296 296 296 296 296 295 295 295 295 295 295 294 294 294 294 294 294 294 293 293 293 292 292 291 290 289 288 288 288 288 287 287 287 287 287 287 287 287 286 286 286 286 285 285 284 284 284 284 284 283 283 283 283 283 283 283 283 283 282 282 281 281 280 280 281 281 281 280 281 281 280 280 280 280 280 280 280 280 280 280 279 279
297 297 296 296 296 296 296 295 295 295 295 295 294 294 294 294 294 294 294 293 293 293 293 292 292 291 290 289 288 288 288 288 287 287 287 287 287 287 287 287 287 287 286 286 285 285 284 284 284 284 283 283 283 283 283 283 283 283 283 283 282 282 282 281 281 280 280 280 281 280 280 280 280 280 280 280 280 280 279 279 279 279 279 278 278
297 296 296 296 296 296 296 295 295 295 295 294 294 294 294 294 294 294 293 293 293 293 292 291 291 291 290 289 288 288 288 288 287 287 287 287 287 287 287 287 287 287 286 286 285 285 284 284 283 283 283 283 283 283 283 283 283 283 282 282 282 282 282 281 281 281 280 280 280 280 280 280 280 280 279 278 279 279 279 279 278 278 277 277 277
297 296 296 296 296 296 295 295 295 294 294 294 293 293 293 293 293 293 293 293 292 292 291 291 291 290 289 289 288 288 288 288 287 287 287 287 287 287 287 287 287 287 286 286 285 285 284 283 283 283 283 283 283 283 283 283 283 282 282 282 282 282 282 281 281 280 280 280 280 280 280 279 279 279 278 278 278 278 277 277 277 277 276 276 276
297 296 296 296 296 296 295 295 294 294 294 293 293 293 293 293 293 292 292 292 292 291 290 290 290 290 289 289 288 288 288 287 287 287 287 287 287 287 287 287 287 287 286 286 285 284 284 283 283 283 283 283 283 283 283 283 282 282 282 282 282 281 281 281 280 280 280 280 279 279 279 279 278 278 277 276 276 276 276 276 276 276 276 276 276
297 296 296 296 296 295 295 294 294 293 293 292 292 292 292 292 292 292 292 291 291 290 290 290 290 289 289 289 288 288 288 287 287 287 287 287 287 287 287 287 287 287 286 286 285 284 283 283 283 283 282 282 282 282 282 282 282 282 282 282 281 281 281 280 280 280 279 279 279 278 277 277 276 276 276 276 275 275 275 275 276 276 276 276 276
297 296 296 296 295 294 294 293 293 293 292 292 292 292 291 291 291 291 291 291 291 290 290 290 290 289 289 288 288 288 288 287 287 287 287 287 287 287 287 287 287 287 286 286 285 284 283 282 282 282 282 282 282 282 282 282 282 282 281 281 281 280 280 280 279 279 278 278 277 276 276 275 275 275 275 275 275 275 275 275 276 276 276 276 276
297 297 297 296 295 294 293 293 293 292 292 292 291 291 291 291 291 291 291 291 290 290 290 290 290 289 289 288 288 288 288 287 287 287 287 287 287 287 287 287 287 287 286 285 284 283 282 282 282 282 282 282 282 282 282 282 282 281 281 281 280 280 280 279 279 278 277 276 276 275 275 275 275 275 275 275 275 275 276 276 276 276 276 276 276
297 297 296 295 294 294 293 293 292 292 292 291 291 291 290 290 290 291 291 291 290 290 290 290 289 289 289 288 288 288 287 287 287 287 287 287 287 287 287 287 287 286 286 285 284 283 282 282 282 282 282 282 282 282 282 282 281 281 281 280 280 280 279 278 277 277 276 275 275 275 275 275 275 275 275 275 275 275 275 275 276 276 276 276 276
297 297 296 295 294 293 293 292 292 292 292 291 291 290 290 290 290 290 291 290 290 290 290 289 289 289 289 288 288 288 287 287 287 287 287 287 287 287 287 287 287 286 286 285 284 283 282 282 281 281 282 282 282 282 281 281 281 281 281 281 281 281 279 278 277 276 275 275 275 275 275 275 275 275 275 275 275 275 275 275 275 275 275 275 275
297 296 295 295 294 293 292 292 292 292 291 291 290 290 290 290 290 290 290 290 290 290 289 289 289 289 289 288 288 288 287 287 287 287 287 287 287 287 287 287 287 286 286 285 284 283 282 281 281 281 281 281 281 281 281 281 281 281 281 282 282 281 279 278 277 276 275 275 274 275 275 274 274 274 274 275 275 275 275 274 274 274 274 274 274
296 296 295 294 293 293 292 292 291 291 291 290 290 289 289 289 289 289 290 290 290 289 289 289 289 289 289 288 288 288 287 287 287 287 287 287 287 287 287 287 286 286 286 285 285 283 282 281 281 281 281 281 281 281 281 281 281 281 282 282 281 279 279 278 277 276 276 275 275 275 274 274 274 274 274 274 274 274 274 274 274 274 274 274 274
296 296 295 294 293 293 292 292 291 291 290 290 290 289 289 289 289 289 289 290 289 289 289 289 289 289 288 288 288 288 287 287 287 287 287 287 287 287 287 286 286 286 285 285 285 284 283 281 281 281 281 281 281 281 281 281 281 282 282 281 280 279 279 278 277 276 276 276 276 275 274 274 274 274 274 274 274 274 274 274 275 274 273 273 273
296 296 295 294 294 293 292 292 291 291 290 290 290 289 289 289 289 289 289 289 289 289 289 289 289 289 288 288 288 288 287 287 287 287 287 287 287 287 286 286 286 286 285 285 285 284 283 282 281 281 281 281 281 281 281 281 282 281 281 280 279 279 279 278 277 277 277 276 276 275 275 275 274 274 275 275 275 274 274 275 274 273 272 272 272
297 296 295 295 294 293 293 292 292 291 291 290 290 290 289 289 289 289 289 289 289 290 289 289 289 288 288 288 288 287 287 287 287 287 287 286 287 287 286 286 286 286 285 285 285 284 284 282 281 281 281 281 281 281 281 281 281 280 280 280 280 279 279 278 278 278 277 276 276 275 275 275 275 275 275 275 275 274 274 274 273 272 271 271 271
297 297 296 295 295 294 293 292 292 291 291 291 290 289 289 289 289 288 288 289 289 289 289 289 289 288 288 288 288 287 287 287 287 287 286 286 287 287 286 286 286 286 285 285 285 284 284 283 282 281 281 281 281 281 280 280 280 279 279 279 279 279 278 277 278 278 277 276 276 276 275 275 275 275 275 275 275 275 275 274 273 272 271 271 271
298 297 296 295 295 294 293 293 292 292 292 291 290 290 289 289 288 288 288 288 289 289 289 289 289 288 288 288 288 288 287 287 287 287 286 286 286 286 286 286 286 286 285 285 285 284 284 283 282 281 281 281 281 280 280 279 279 279 279 279 279 278 277 277 277 277 276 276 276 275 275 275 275 275 275 275 275 275 275 274 273 272 272 271 271
297 296 296 295 295 294 293 293 292 292 292 291 290 290 289 289 288 288 288 288 288 288 288 288 288 288 288 288 288 288 287 287 287 287 286 286 286 286 286 286 286 286 286 285 285 284 284 284 283 281 281 280 280 280 279 279 279 279 279 278 278 277 277 277 277 276 275 275 275 275 275 275 275 275 275 275 275 274 274 274 273 273 272 271 271
296 296 295 295 294 294 293 293 292 292 291 291 290 290 289 289 288 288 288 288 288 288 288 288 288 288 288 288 288 288 288 287 287 287 286 286 286 286 286 286 286 285 285 285 285 284 284 283 282 281 280 280 280 280 279 279 279 278 278 278 277 277 277 277 276 276 275 275 275 275 275 274 275 275 275 274 274 274 274 274 274 273 272 272 270
295 295 295 294 294 294 293 293 292 292 291 291 290 290 289 289 288 288 288 288 288 288 288 288 288 288 288 288 288 288 288 288 287 287 287 286 286 286 286 286 286 285 285 285 285 284 284 283 282 281 280 280 280 279 279 279 278 278 277 277 276 276 276 276 276 275 275 274 274 274 274 274 274 274 274 274 274 274 274 274 274 273 273 272 272
294 294 294 294 294 294 293 293 292 292 291 291 290 290 289 289 288 288 288 288 288 288 287 287 287 288 288 288 288 288 288 288 288 287 287 286 286 286 285 286 285 285 285 285 285 284 284 283 282 280 280 279 279 279 279 278 278 277 277 276 276 276 276 276 275 275 275 274 274 274 274 274 274 274 274 274 273 273 273 274 274 273 273 273 273
292 293 293 293 293 293 293 293 293 292 292 292 291 291 290 290 290 289 289 288 288 288 288 287 287 287 287 288 288 288 288 288 288 287 287 286 286 285 285 285 285 285 285 285 285 284 283 283 282 280 279 279 278 278 278 278 277 277 276 276 276 276 276 275 275 275 274 274 274 274 274 274 274 274 274 273 273 273 273 273 273 273 273 273 274
291 291 291 292 292 292 292 293 293 293 293 292 292 292 292 291 291 290 290 290 289 289 288 288 288 288 288 288 287 287 287 288 288 288 287 286 286 285 285 285 285 285 285 284 284 284 283 283 282 280 278 278 277 278 278 277 277 276 276 276 276 276 275 275 274 274 274 274 274 273 273 273 273 273 273 273 273 273 273 273 273 273 273 273 274
291 291 291 291 291 291 291 291 292 292 292 293 293 293 293 292 292 292 292 291 291 290 290 290 289 289 289 289 288 288 287 287 287 287 287 286 286 285 285 285 285 284 284 284 284 283 283 282 281 279 277 277 277 277 277 276 276 276 276 276 275 275 274 274 274 274 274 274 273 273 273 273 273 273 273 273 273 273 272 272 272 272 273 273 273
291 291 291 291 291 291 291 291 291 291 291 291 292 292 292 292 292 292 292 292 292 292 291 291 290 290 290 290 289 288 288 287 287 287 287 286 286 285 285 285 284 284 284 284 283 283 282 281 279 278 277 277 277 277 276 276 276 276 276 275 275 274 274 274 274 274 273 273 273 273 272 272 273 273 273 273 273 273 272 272 272 272 272 272 273
291 291 291 291 291 291 290 290 290 290 290 290 290 291 291 291 291 291 291 292 291 291 291 290 290 290 289 289 289 288 288 288 287 286 286 285 285 285 284 284 284 283 283 282 282 282 282 281 280 278 277 277 277 277 277 276 275 275 275 275 274 274 274 274 273 273 273 273 273 272 272 272 272 272 272 273 273 273 272 272 271 271 271 271 272
291 291 291 291 291 291 291 291 290 290 290 290 290 290 290 290 290 290 290 290 290 290 290 290 289 289 289 288 288 287 287 287 286 285 284 284 284 283 283 283 283 283 282 281 281 281 281 281 280 279 278 277 278 277 277 276 275 275 274 274 274 273 273 273 273 273 273 272 272 272 272 272 272 272 272 272 272 272 272 272 271 271 271 271 271
291 291 291 291 291 291 290 290 290 290 290 290 290 290 290 290 290 289 289 289 289 289 289 289 288 288 288 288 287 287 286 286 285 284 283 283 283 283 283 283 283 283 282 281 280 280 281 280 280 279 278 278 278 277 276 275 275 274 274 273 273 273 273 273 272 272 272 272 272 272 272 271 271 271 272 272 272 272 272 272 271 271 271 271 271
291 291 291 291 291 291 291 290 290 290 290 290 290 290 290 290 290 289 289 288 288 288 288 287 287 286 286 286 286 286 285 284 283 283 282 282 282 283 283 283 283 282 281 280 280 280 280 280 280 279 278 278 277 277 276 275 274 274 274 273 273 273 273 272 272 272 272 272 272 272 271 271 271 271 271 271 271 272 272 271 271 271 271 270 271
291 291 291 291 291 291 291 290 290 290 290 290 290 290 290 289 289 289 288 287 287 287 287 286 286 285 285 284 285 285 284 283 282 282 281 281 281 282 282 282 282 281 280 279 279 279 279 279 279 278 278 277 277 276 275 274 274 274 274 273 273 273 272 272 272 272 271 271 271 271 271 271 271 271 271 271 271 271 271 271 271 271 270 270 270
290 290 291 291 291 291 290 290 290 290 290 290 289 289 289 289 289 289 288 287 287 287 286 286 285 284 284 283 283 283 282 282 281 281 280 280 280 280 280 280 280 279 278 277 277 277 277 278 278 278 277 277 276 275 274 274 274 274 273 273 273 273 272 272 272 271 271 271 271 271 271 271 270 270 271 271 271 271 271 271 271 270 270 270 270
290 290 290 290 290 290 290 290 290 290 290 289 289 289 289 289 288 288 288 288 287 287 286 285 284 283 283 282 282 281 280 280 279 279 279 279 279 279 279 279 279 278 277 277 277 277 277 277 278 278 277 276 275 274 274 273 273 273 273 273 273 272 272 272 271 271 271 271 271 271 271 270 270 270 270 271 271 271 271 271 270 270 270 270 270
290 290 290 290 290 290 290 290 290 290 289 289 288 288 288 288 288 288 287 287 287 287 286 285 284 283 282 281 281 280 279 278 277 277 277 277 278 278 278 277 277 277 276 277 277 277 277 277 277 276 276 275 274 274 273 273 273 273 273 272 272 272 272 272 271 271 270 271 271 271 270 270 270 270 270 270 270 270 270 270 270 270 270 269 269
290 290 290 290 290 290 290 290 289 289 289 288 288 288 287 287 287 287 286 286 285 285 285 284 284 283 281 280 279 279 278 277 276 276 276 276 276 276 276 276 276 276 276 276 276 276 276 276 276 275 274 274 274 273 273 272 272 272 272 272 272 272 271 271 271 271 270 270 270 270 270 270 270 270 270 270 270 270 270 270 269 269 269 269 269
290 290 290 290 290 289 289 289 289 288 288 288 287 287 287 286 286 285 285 284 284 283 283 283 282 281 280 279 278 277 276 276 276 276 276 276 276 276 276 276 276 276 276 276 275 275 275 275 275 274 274 273 273 272 272 272 272 272 272 271 271 271 271 271 271 270 270 270 270 270 270 270 270 269 269 269 270 270 269 269 269 268 269 269 268
289 289 289 289 289 289 288 288 288 287 287 287 286 286 286 285 285 284 284 283 283 282 281 281 280 279 279 277 276 276 275 275 275 275 275 276 276 276 276 276 276 275 275 275 275 274 274 274 274 274 273 273 272 272 271 271 271 271 271 271 271 271 271 271 271 270 270 270 270 270 270 269 269 269 269 269 269 269 268 268 268 268 268 268 268
289 288 288 288 288 287 287 287 286 286 286 285 285 285 284 284 284 283 282 282 281 280 280 279 278 278 277 276 276 275 275 275 275 275 276 276 276 276 275 275 275 275 274 274 273 273 273 273 273 272 272 272 271 271 270 270 271 271 271 271 270 270 270 270 270 270 270 269 269 269 269 269 269 269 269 269 268 268 268 268 268 267 267 267 267
288 287 287 287 286 286 286 285 285 285 285 284 284 284 283 283 282 282 281 280 279 279 278 278 277 277 276 276 276 275 276 276 276 276 276 276 275 275 275 275 274 274 274 273 273 272 272 272 272 272 271 271 270 270 270 270 270 270 270 270 270 270 270 270 270 270 269 269 269 269 269 269 269 268 268 268 268 267 267 267 267 267 267 267 267
286 286 286 285 285 284 284 284 284 283 283 283 282 282 281 281 280 280 279 278 278 278 277 277 277 276 276 276 275 275 275 276 276 276 275 275 275 274 274 274 273 273 272 272 272 271 271 271 271 271 270 270 269 269 269 270 270 270 270 270 270 270 269 269 269 269 269 269 269 269 269 268 268 268 267 267 267 267 267 267 267 267 267 267 267
284 284 284 283 283 283 282 282 281 281 281 280 280 280 279 279 278 278 278 277 277 277 277 277 276 276 276 275 275 275 275 274 274 274 274 274 273 273 273 272 272 272 271 271 270 270 270 270 270 270 270 269 269 269 269 269 270 270 270 270 269 269 269 269 269 269 269 268 268 268 268 268 267 267 267 267 267 267 267 267 267 267 266 266 266
282 282 282 281 281 280 280 280 279 279 279 279 279 278 278 278 278 277 277 277 277 276 276 276 275 275 275 274 274 274 273 273 272 272 272 272 272 271 271 271 270 270 270 270 269 269 268 268 268 268 268 268 268 268 268 269 269 269 269 269 269 269 269 269 269 268 268 268 268 268 267 267 267 267 267 267 267 267 267 267 267 267 266 266 266
280 280 280 280 280 279 279 279 279 279 278 278 278 277 277 277 276 276 276 275 275 275 274 274 274 273 273 273 272 272 271 271 271 271 270 270 270 270 269 269 268 268 268 268 268 267 267 267 267 267 267 267 267 267 267 268 268 268 269 268 268 268 268 268 268 268 267 267 267 267 267 267 267 267 267 266 266 266 266 267 267 266 266 266 266
279 279 279 279 279 278 278 278 277 277 277 276 276 275 275 275 274 274 274 273 273 273 272 272 272 272 271 271 271 271 270 270 270 270 269 269 269 269 268 268 268 267 267 266 266 266 266 266 266 266 266 266 266 266 267 267 268 268 268 268 268 268 268 268 267 267 267 267 267 267 267 267 267 266 266 266 266 266 266 266 266 266 266 266 266
278 278 277 277 277 276 276 276 275 275 275 274 274 274 273 273 273 273 272 272 272 272 271 271 271 271 270 270 270 270 270 269 269 269 269 268 268 268 267 267 267 266 266 266 265 265 265 265 265 265 266 266 266 266 266 267 267 267 267 267 267 267 267 267 266 266 266 266 266 267 266 266 266 266 266 266 266 266 266 266 266 266 266 265 265
276 276 275 275 275 275 274 274 274 274 274 273 273 273 273 272 272 272 272 271 271 271 271 270 270 270 270 269 269 269 269 269 268 268 268 268 267 267 267 266 266 266 266 265 265 265 264 264 265 265 265 265 265 265 266 266 266 266 266 266 266 266 266 266 266 266 266 266 266 266 266 266 266 266 266 266 266 266 266 266 266 266 265 265 265
274 274 274 274 274 273 273 273 273 273 272 272 272 272 271 271 271 271 271 270 270 270 270 270 270 269 269 269 269 268 268 268 268 267 267 267 267 266 266 266 266 266 265 265 265 265 264 264 264 264 264 265 265 265 265 265 265 265 266 265 265 265 265 266 266 266 266 266 266 265 265 266 266 266 266 266 266 266 266 266 266 266 265 265 265
273 273 273 273 272 272 272 272 272 271 271 271 271 271 270 270 270 270 270 270 269 269 269 269 269 269 268 268 268 268 267 267 267 267 267 267 266 266 266 266 266 266 265 265 265 265 265 264 264 264 264 264 264 264 265 265 265 265 265 265 265 265 265 266 266 265 265 265 265 265 265 266 266 266 266 266 266 266 266 266 266 265 265 265 265
272 272 272 272 271 271 271 271 271 270 270 270 270 270 270 270 270 269 269 269 269 269 268 268 268 268 268 268 267 267 267 267 267 267 267 266 266 266 266 266 266 266 265 265 265 265 265 265 264 264 264 264 264 264 264 264 265 265 265 265 265 265 265 265 265 265 265 265 265 265 265 266 266 266 266 266 266 266 266 266 265 265 265 265 265
Wind_Speed
35 34 32 30 28 27 26 26 25 23 22 20 18 17 16 15 13 12 10 8 7 5 2 1 1 3 4 5 5 5 5 6 6 6 7 8 9 9 10 10 10 11 10 11 11 11 12 13 13 14 14 15 16 16 17 17 18 19 20 21 22 23 24 26 30 36 38 37 39 41 40 42 43 41 42 43 43 42 42 41 40 40 40 39 38
36 35 33 31 29 28 27 27 26 25 23 22 20 19 18 16 14 13 11 9 8 6 5 3 3 3 4 5 5 5 6 6 6 7 8 8 9 9 10 10 10 10 10 11 12 12 13 13 14 15 15 15 16 17 18 18 19 20 21 22 23 24 25 27 30 35 39 39 40 41 41 42 43 43 42 43 43 43 43 42 40 39 39 39 37
37 35 34 32 31 29 29 28 27 26 25 24 22 21 19 17 16 14 12 11 10 8 7 5 5 5 6 6 6 6 6 7 7 8 8 8 8 9 9 10 10 10 11 12 12 13 13 14 14 15 15 16 16 17 19 19 20 21 22 23 24 25 26 27 30 33 38 41 41 41 42 42 43 43 42 42 43 43 43 43 42 40 38 37 36
38 36 35 33 32 31 31 30 29 28 27 25 24 22 21 19 17 15 14 14 12 10 8 7 7 7 7 7 6 6 7 7 7 8 8 8 9 9 10 10 11 11 11 12 13 13 13 14 14 15 15 16 17 18 19 20 21 22 23 24 25 27 27 28 30 32 36 41 42 41 42 43 43 43 42 43 43 43 43 42 42 41 38 36 36
39 37 36 35 34 33 33 32 31 30 28 27 26 24 22 20 18 17 16 16 14 12 11 10 9 9 8 8 7 7 7 7 8 8 8 9 9 9 10 11 11 12 12 13 13 13 14 14 15 15 16 17 18 19 20 21 22 23 24 25 26 28 29 30 31 33 35 39 42 42 42 43 43 43 43 43 44 44 42 41 40 41 40 39 38
40 39 38 37 36 35 35 34 33 32 30 29 27 25 23 21 20 19 18 17 15 14 13 12 11 10 9 8 8 8 7 8 9 9 9 9 9 10 11 11 12 12 12 13 14 14 15 15 15 16 17 18 19 20 21 21 23 24 25 26 27 29 30 32 33 34 36 39 41 42 43 43 43 44 43 41 42 42 42 42 42 40 41 42 43
41 40 39 38 37 37 37 36 34 33 32 30 29 27 25 23 22 21 20 18 16 16 15 13 12 11 10 9 9 8 8 9 9 10 10 10 10 11 12 12 12 12 13 14 14 15 15 16 16 17 17 18 19 20 21 22 23 24 25 27 28 30 32 33 34 35 37 39 40 41 42 42 42 44 43 40 39 40 42 45 46 44 43 44 45
42 41 40 40 40 39 38 37 35 34 32 32 30 28 26 25 24 22 21 19 17 16 15 14 12 11 10 10 10 9 9 9 10 11 11 11 11 12 13 13 13 13 13 14 15 16 17 17 17 17 18 19 20 21 22 23 24 25 26 27 29 30 32 33 34 35 37 38 39 40 41 42 43 43 42 41 40 41 41 44 48 49 47 46 46
43 42 42 42 41 40 39 38 36 35 34 33 32 30 28 27 25 23 21 20 19 18 16 15 14 12 12 11 10 10 9 10 11 11 11 11 12 13 13 14 14 14 14 14 15 16 17 18 18 18 18 19 20 21 22 23 24 25 26 28 29 31 32 33 34 34 35 37 38 39 41 43 42 42 42 42 43 43 41 42 47 49 47 49 49
45 44 44 43 42 41 40 39 38 37 36 35 33 32 30 29 26 24 22 21 20 19 18 17 15 14 13 12 11 10 10 11 12 12 12 12 13 14 14 15 15 15 15 15 16 17 18 18 18 18 18 19 20 21 21 22 23 25 26 27 28 30 31 32 32 32 33 36 37 37 40 42 41 41 43 44 43 43 42 43 46 49 48 50 51
46 46 46 45 44 43 41 41 39 38 38 36 35 33 31 30 27 25 24 23 22 20 19 18 17 15 14 13 11 11 11 12 12 12 12 13 14 14 15 16 15 15 16 16 16 17 18 18 18 18 18 19 19 20 21 22 23 24 25 26 27 28 29 30 30 30 31 33 35 34 36 40 41 41 41 42 40 39 40 42 44 47 48 49 51
47 47 47 46 45 44 43 42 41 40 39 38 37 35 33 31 29 27 26 25 23 22 21 20 18 17 16 14 12 12 12 12 12 12 13 13 15 15 15 16 16 16 16 16 16 17 18 18 18 18 18 19 19 20 21 22 23 24 25 25 26 27 26 26 26 27 28 31 34 34 34 36 40 39 36 36 37 38 40 42 42 44 45 43 43
49 49 49 47 47 46 45 44 43 41 41 39 38 36 34 33 31 30 28 26 25 24 23 21 20 19 17 15 13 13 13 13 13 13 13 14 15 16 16 17 17 17 17 17 17 17 18 18 18 18 18 19 19 21 22 22 23 24 25 26 27 28 28 26 25 26 26 28 32 34 33 33 35 36 33 34 37 39 41 42 41 41 41 40 40
51 51 50 48 48 47 46 45 44 43 42 40 39 38 37 35 33 32 30 28 27 26 24 24 23 21 18 16 15 15 14 14 14 14 14 14 15 17 18 18 18 18 18 18 18 18 18 19 18 18 18 19 19 21 22 22 23 25 26 28 29 29 29 29 27 27 26 26 29 32 32 30 31 34 34 33 35 38 39 41 42 42 43 44 43
51 51 50 49 49 48 47 46 45 44 43 42 41 40 38 37 35 34 32 30 29 27 26 26 25 22 20 18 17 16 15 16 16 15 15 15 16 17 18 19 19 19 19 19 19 19 19 19 19 19 19 19 19 21 22 23 24 27 28 29 29 29 29 28 27 27 27 27 28 29 29 28 28 31 33 33 35 37 38 39 41 41 42 42 40
51 51 51 50 49 49 48 47 46 45 44 44 43 42 40 39 37 36 33 31 30 29 28 29 27 24 22 21 19 18 17 18 18 16 16 16 16 18 19 19 20 20 20 20 20 20 20 20 20 20 19 19 20 21 22 23 25 27 28 28 28 29 29 27 26 27 27 27 27 27 27 27 27 29 31 32 34 35 37 37 37 36 35 37 38
49 50 50 50 49 48 48 47 47 47 47 46 45 44 42 41 39 37 35 33 32 32 32 31 29 26 24 23 21 20 19 20 19 18 18 18 18 19 19 19 20 21 21 21 21 20 21 21 21 20 20 20 21 21 22 23 25 26 26 27 28 30 29 28 28 29 28 26 26 26 26 26 27 28 29 30 31 32 34 35 34 32 31 32 33
45 47 47 47 46 46 46 47 47 48 48 48 46 45 43 42 41 39 38 36 34 34 34 33 30 28 27 25 24 22 21 22 22 21 20 20 20 20 20 20 20 21 22 22 22 22 22 22 21 21 20 20 21 21 21 22 23 24 25 27 29 30 29 29 31 31 29 27 26 25 26 26 27 29 29 29 29 28 30 31 29 27 27 27 29
39 40 40 41 42 43 44 45 46 47 48 48 47 45 44 43 42 41 39 38 36 35 35 34 32 31 30 28 26 25 24 24 24 23 22 22 22 22 21 21 20 21 22 23 23 23 23 22 22 21 21 22 22 21 20 20 21 23 25 27 29 29 28 29 32 32 30 29 28 27 27 27 28 29 28 27 26 26 26 27 26 25 25 26 27
31 32 34 35 37 39 40 42 43 44 45 46 45 44 44 44 43 42 41 40 38 37 37 36 35 34 32 31 30 28 27 26 26 26 24 24 24 24 23 22 21 21 22 24 25 25 24 23 23 22 22 22 22 20 19 19 21 23 24 25 27 28 28 29 31 30 29 29 28 27 28 27 27 28 27 26 26 25 26 26 26 24 24 26 27
24 26 28 30 32 34 36 38 39 40 41 42 43 44 44 44 43 42 42 41 40 40 39 38 37 36 35 34 33 32 30 29 29 29 27 26 26 26 26 23 21 22 23 24 25 25 25 24 23 22 22 23 21 20 19 19 20 22 23 24 25 25 27 29 29 28 28 28 27 26 27 27 27 27 26 26 26 26 27 26 25 24 24 25 27
19 21 24 26 28 30 32 33 35 36 38 39 41 42 42 42 42 41 42 43 43 42 42 41 40 39 38 36 36 35 34 33 32 31 30 29 28 28 27 24 22 23 24 25 25 26 26 26 24 23 23 23 22 20 19 19 20 21 22 22 23 24 26 27 27 27 27 26 25 25 25 26 27 26 25 25 25 26 26 26 25 25 24 24 25
15 18 20 22 24 26 28 30 31 33 35 37 38 39 39 40 40 40 41 43 44 44 44 43 43 42 40 39 38 38 37 37 36 34 33 32 30 30 29 26 24 24 25 26 26 26 26 26 25 24 24 24 23 21 20 19 20 21 21 21 22 24 25 25 26 26 26 24 24 24 24 25 26 25 25 25 25 25 26 25 25 25 24 24 25
13 16 17 19 21 22 24 26 28 30 31 33 35 36 37 38 39 39 40 41 43 44 45 45 45 45 44 43 41 40 39 39 39 38 36 35 34 31 29 28 27 26 26 26 26 27 27 27 26 24 24 24 23 21 21 20 20 20 20 21 22 23 24 24 25 25 24 23 23 24 23 23 24 24 24 25 25 25 25 25 24 24 24 25 26
12 13 15 16 17 19 20 22 24 26 28 30 32 34 35 36 37 38 39 40 41 42 43 45 46 46 46 46 44 43 41 40 41 41 39 37 36 33 31 30 28 27 27 27 27 27 27 27 26 25 25 23 22 22 22 21 20 20 21 21 22 23 23 23 24 24 24 23 23 23 22 21 22 22 23 24 24 25 25 25 24 25 25 27 27
11 11 12 13 14 15 17 19 20 22 24 27 29 31 32 34 35 36 37 38 39 40 42 43 44 45 46 46 46 45 45 43 43 43 42 39 37 35 33 31 28 27 28 28 28 28 28 28 28 27 24 22 22 24 24 21 20 21 21 21 22 22 22 22 23 23 23 23 22 22 21 21 21 21 22 23 24 25 26 26 26 26 27 29 29
9 10 11 12 13 14 15 17 18 20 22 24 26 28 30 31 33 34 35 36 37 38 39 41 42 43 44 44 44 46 47 47 46 46 44 41 39 37 35 33 30 29 29 29 28 28 28 29 28 27 25 24 25 26 24 22 22 21 20 21 21 21 21 22 23 23 23 23 22 21 21 20 21 21 21 23 24 25 25 26 27 27 28 29 31
10 11 12 13 14 15 16 17 18 20 21 22 24 26 28 30 32 33 34 35 36 37 38 40 41 42 42 43 44 46 47 48 48 47 45 42 40 37 36 34 32 30 29 28 27 27 28 29 29 28 27 27 28 27 25 23 23 22 21 21 21 21 21 22 22 22 22 23 23 22 21 21 21 22 22 23 24 25 25 25 26 27 28 29 31
13 14 15 16 17 18 19 20 21 22 23 24 25 26 28 29 31 33 34 35 37 38 39 40 41 42 43 44 45 46 47 47 46 44 41 39 38 37 36 35 33 30 29 28 27 28 30 31 31 31 29 29 28 27 24 23 22 22 22 22 22 21 21 22 22 21 21 22 22 22 22 22 21 22 23 24 25 25 25 25 26 26 27 29 30
16 17 18 19 20 21 22 23 23 24 25 26 27 28 29 30 31 32 34 35 37 38 40 41 42 42 44 45 45 46 46 46 44 41 38 36 36 36 36 35 34 32 30 28 29 30 31 32 32 32 30 29 28 26 23 21 22 22 22 22 22 22 21 21 21 21 21 21 22 22 23 23 22 22 24 25 26 26 25 25 25 26 27 28 30
19 20 21 22 23 24 25 26 26 27 28 28 29 29 30 31 32 33 34 35 36 38 39 40 41 42 43 44 44 45 45 45 44 42 38 37 37 36 36 36 36 33 30 29 30 32 32 32 33 32 30 29 27 25 22 22 23 23 22 22 22 22 22 21 21 22 21 21 22 22 23 23 23 23 24 25 26 27 26 25 25 25 26 27 29
22 22 23 24 25 27 28 29 29 30 30 30 31 31 32 32 32 33 33 33 34 36 36 37 38 39 40 41 42 42 43 43 43 41 39 38 37 37 37 36 35 33 30 28 30 32 32 32 32 31 28 27 27 25 23 23 23 24 24 24 23 22 22 22 22 22 22 22 22 22 23 24 24 24 24 25 26 27 27 26 25 26 26 27 28
24 24 24 25 26 28 29 30 30 30 30 30 30 31 31 32 31 31 30 30 31 32 33 34 34 35 36 37 39 39 39 39 38 38 38 38 38 37 36 35 33 31 28 27 30 31 31 32 32 31 29 29 28 26 24 24 24 25 25 25 24 22 21 22 23 23 22 23 23 23 23 24 24 25 25 25 26 26 27 26 26 26 26 27 28
25 26 26 27 27 28 29 30 30 30 30 30 30 30 30 30 30 29 29 29 29 30 30 31 31 31 32 33 34 35 36 35 35 36 36 36 36 35 33 32 31 28 26 27 29 31 32 34 34 32 31 30 30 28 26 25 25 26 26 26 25 23 22 22 23 23 23 23 23 23 24 24 24 25 26 26 26 26 26 26 26 26 26 27 28
26 27 27 28 29 29 30 30 30 30 30 30 30 30 30 29 29 30 30 30 30 30 29 29 29 29 30 30 30 30 31 32 34 34 34 34 33 30 28 29 29 28 27 29 30 32 34 35 35 33 32 31 31 30 28 26 26 27 27 27 25 24 24 23 23 23 23 23 23 23 24 25 25 25 26 26 26 27 27 26 26 26 26 27 27
27 27 27 28 28 29 29 29 30 30 30 30 30 30 30 29 29 29 29 30 30 30 30 29 29 29 28 29 29 28 28 28 29 28 27 27 27 25 25 27 29 29 30 31 32 34 35 36 35 34 33 32 32 31 29 27 27 27 27 27 26 25 24 23 23 23 23 23 23 24 24 25 25 25 26 26 26 27 26 26 26 26 25 25 26
26 27 27 27 27 28 28 29 29 29 29 29 29 29 29 28 28 28 28 29 29 29 29 30 29 29 28 26 26 26 26 26 26 24 23 22 21 22 24 27 29 31 33 34 34 35 36 36 35 34 34 33 33 32 29 27 27 28 28 28 27 26 25 24 24 24 24 24 24 24 25 25 25 25 26 27 27 27 26 26 26 26 25 24 25
26 26 26 27 27 28 28 28 28 28 28 28 28 28 27 27 27 27 27 27 27 27 27 27 27 27 26 24 22 22 23 25 26 26 26 26 26 27 29 31 32 34 36 36 36 37 38 37 35 34 33 33 33 31 28 27 27 28 29 29 28 27 26 25 24 24 25 24 24 24 25 26 25 25 26 27 27 27 27 26 26 25 24 24 24
26 26 26 26 27 27 26 26 26 26 25 25 25 25 25 25 25 25 25 25 25 25 24 24 23 23 22 20 19 19 20 23 25 26 26 27 28 29 30 32 33 34 35 36 36 37 37 36 34 32 32 32 32 30 28 27 28 29 29 30 29 28 26 25 24 24 25 25 24 24 25 26 26 26 27 27 27 26 26 26 25 25 24 24 24
25 25 26 26 25 25 24 24 23 23 22 22 22 22 22 22 22 22 22 22 22 21 20 20 19 19 18 17 17 17 19 21 24 25 27 27 27 28 29 30 32 33 34 34 35 36 35 35 33 32 32 32 32 30 29 28 29 29 30 30 30 28 26 25 24 24 25 25 25 25 25 26 26 27 26 26 25 25 25 26 25 24 23 23 23
24 24 24 23 22 22 21 21 20 20 19 19 19 19 20 19 19 19 18 18 17 17 16 16 16 16 16 17 17 18 20 22 23 24 26 27 27 28 28 29 30 31 32 33 33 34 34 33 33 32 32 33 32 31 30 29 29 30 30 31 30 29 26 25 24 24 25 25 25 25 25 26 26 26 26 25 24 24 24 24 24 23 22 21 22
21 21 20 19 18 18 18 18 17 16 16 16 17 17 17 16 16 16 15 15 15 15 15 16 16 16 17 17 18 19 21 23 24 25 25 26 27 27 28 28 28 29 30 31 31 32 32 32 32 32 33 33 32 31 30 29 29 30 30 30 30 29 27 25 24 24 25 25 25 25 25 26 26 26 25 24 23 24 24 24 23 22 21 20 21
17 17 16 15 15 15 15 15 15 15 15 15 15 15 15 14 14 15 15 15 15 16 16 16 17 18 18 18 19 20 21 22 23 25 26 26 27 28 28 28 28 28 29 30 30 30 31 32 32 32 32 32 31 30 29 28 28 29 30 30 29 28 27 25 24 24 24 25 25 25 25 25 25 24 24 23 23 23 23 23 23 21 20 20 20
14 13 13 13 14 14 14 15 15 15 15 15 15 15 14 14 14 15 15 15 16 16 17 18 18 19 19 20 20 21 21 22 23 24 25 26 28 28 29 29 29 29 29 30 29 29 30 30 31 31 31 31 30 29 28 27 27 28 29 29 29 28 26 24 23 23 24 25 25 25 25 25 24 23 23 22 22 22 22 22 22 21 20 19 19
13 14 14 14 14 15 15 15 15 15 14 14 14 14 14 14 15 15 16 16 17 17 18 18 19 19 19 19 20 20 20 20 21 22 23 24 25 26 27 28 28 29 29 29 28 28 28 28 29 29 30 29 28 27 25 25 25 27 28 28 28 27 25 24 23 23 24 25 25 24 24 24 24 23 22 21 21 21 21 21 20 20 19 18 18
14 14 14 14 14 14 14 14 14 14 14 14 14 14 14 15 15 16 16 16 16 17 17 17 17 17 17 17 17 17 17 18 18 18 19 20 20 21 22 23 25 26 26 26 26 26 26 26 27 28 28 27 26 24 24 23 24 26 27 27 27 25 24 23 23 23 23 24 24 24 24 24 23 21 20 20 19 20 20 20 19 19 18 18 18
12 12 12 12 12 13 13 13 14 14 14 14 14 14 14 14 14 14 15 15 15 14 14 14 14 15 15 15 15 15 16 16 17 17 17 18 18 18 19 20 21 22 22 23 23 23 23 23 23 25 26 26 24 22 22 22 23 25 26 26 25 23 22 22 23 23 23 24 24 24 24 23 22 20 19 19 19 19 19 19 18 18 17 17 17
11 11 12 12 12 12 13 13 13 14 14 14 14 13 13 13 13 13 13 13 13 13 13 13 13 13 13 13 14 14 15 15 15 15 15 16 16 16 17 18 19 20 20 21 20 21 21 21 21 22 23 23 22 21 21 21 22 24 24 23 23 22 22 22 23 23 23 23 23 23 22 22 21 20 19 19 18 18 18 18 17 17 16 16 16
11 11 11 11 11 12 12 12 12 13 13 13 13 13 12 12 12 12 12 12 12 12 13 13 13 13 13 13 13 13 13 13 13 14 14 14 15 16 17 17 18 19 19 19 19 19 20 20 20 20 21 21 20 19 19 20 21 21 22 21 21 21 21 22 23 23 22 22 22 21 21 21 20 20 19 18 18 17 18 18 17 16 16 16 15
11 11 11 11 11 12 12 12 12 12 12 12 12 12 12 12 12 12 12 12 12 13 13 13 13 12 12 12 12 12 12 12 13 13 13 14 14 15 16 16 17 18 18 19 19 19 19 20 20 20 20 19 19 19 19 19 20 20 20 20 20 20 21 22 22 22 21 21 21 20 20 21 21 20 19 18 17 17 17 17 16 16 16 16 15
11 11 11 11 12 12 12 12 12 12 12 12 12 12 12 12 12 13 13 13 13 13 13 13 13 12 12 12 13 13 13 13 13 13 13 14 14 15 15 16 16 17 17 17 18 18 18 18 19 19 19 19 19 19 19 19 19 19 19 19 19 20 21 21 20 20 20 20 21 21 21 21 21 21 20 18 17 17 17 17 16 16 15 15 15
Wind_Direction
197 197 196 196 198 197 196 195 195 196 196 195 196 196 195 194 192 192 191 190 190 194 212 256 307 311 310 308 308 305 302 303 307 314 323 328 331 333 331 330 328 326 325 325 325 325 326 327 327 326 325 323 321 320 321 321 322 324 325 325 326 326 325 322 319 319 323 325 323 325 328 326 324 326 327 326 326 327 326 327 328 327 326 325 325
199 199 199 199 199 200 199 199 199 200 199 199 201 201 200 199 198 200 200 202 205 212 225 238 257 275 282 285 284 283 287 295 303 311 318 321 324 326 326 326 325 324 323 323 324 324 324 323 322 320 319 318 318 318 318 320 321 322 324 324 324 325 324 322 320 318 321 324 323 323 325 324 323 325 326 325 326 326 326 327 328 326 324 324 325
202 201 201 201 201 201 203 204 204 204 203 205 206 205 204 204 204 205 208 212 215 219 225 231 241 254 261 264 265 271 283 292 299 304 309 312 318 323 324 325 325 324 323 322 321 320 319 317 315 315 315 315 316 316 317 319 320 321 322 322 322 323 323 321 320 318 319 321 322 322 322 323 323 324 326 326 327 327 327 328 327 326 326 326 325
204 203 203 203 203 203 206 208 208 207 208 210 210 208 208 208 209 211 214 219 221 223 228 232 237 245 250 252 257 267 279 287 293 298 303 310 318 322 324 324 324 323 321 318 316 314 312 311 310 310 311 312 313 314 316 317 318 319 320 321 321 322 322 321 319 318 317 318 320 321 321 322 323 323 326 328 329 329 329 329 328 328 329 329 328
206 206 205 205 205 206 209 211 211 211 212 213 213 212 211 212 214 217 218 222 224 226 229 231 234 241 246 249 255 265 276 284 291 296 302 307 314 318 321 322 321 319 318 314 312 309 307 306 306 307 308 309 310 311 313 314 316 317 318 320 321 321 321 321 320 318 317 317 318 320 321 322 323 324 329 332 331 330 329 329 329 329 330 331 331
207 208 208 208 209 210 212 212 213 213 215 215 215 215 215 216 219 221 222 224 226 228 228 229 233 240 244 249 255 265 276 284 289 293 298 303 308 314 317 317 317 316 314 311 307 305 303 302 302 303 303 305 307 308 310 312 313 316 318 319 320 321 321 321 320 319 318 318 318 320 323 324 324 326 332 335 332 330 329 328 328 330 330 330 329
209 210 211 211 212 214 214 215 215 216 217 217 217 217 218 220 222 223 224 225 228 228 227 228 233 239 243 249 257 265 273 280 286 290 294 300 306 311 313 312 313 312 310 308 304 301 299 298 298 298 299 301 303 306 309 310 313 316 318 319 320 320 321 321 321 320 319 319 320 322 323 324 326 328 332 334 333 331 331 328 326 327 328 327 325
210 212 213 214 216 217 217 217 216 217 219 219 219 219 220 222 223 223 224 226 229 228 227 231 236 239 244 250 256 264 272 278 284 288 292 299 304 307 309 309 309 309 306 304 301 297 296 294 293 293 295 298 301 304 307 310 313 316 318 319 320 320 321 320 320 319 319 319 321 324 324 325 327 329 330 332 331 329 328 326 323 323 324 324 322
213 214 216 217 218 218 218 218 218 219 220 220 220 221 222 223 224 224 225 228 228 227 229 234 237 240 245 251 256 263 271 276 281 285 291 298 302 305 306 306 306 306 304 301 297 294 292 290 289 290 292 296 299 303 307 310 313 316 317 319 319 320 320 319 318 319 320 322 323 325 325 324 326 328 329 330 329 326 326 324 320 320 321 320 319
215 216 219 220 220 220 219 220 219 220 221 222 223 223 224 224 224 224 227 228 228 228 231 234 237 240 244 247 253 260 268 273 278 284 291 297 301 303 304 304 305 304 301 298 293 290 288 286 287 288 290 294 298 302 306 309 311 314 316 318 318 318 317 317 318 321 323 324 324 323 321 320 323 326 327 326 325 323 324 323 320 319 319 318 317
218 220 222 222 221 221 221 221 221 221 222 224 224 224 224 225 225 226 228 229 228 230 232 233 236 241 243 245 250 257 265 271 276 283 289 296 299 301 302 303 304 303 300 296 291 287 285 284 285 287 289 292 296 300 304 307 310 312 314 315 314 313 314 317 321 325 325 321 318 316 314 316 320 323 322 321 320 319 319 318 316 316 316 315 315
221 223 224 223 223 222 222 222 223 223 224 225 226 225 225 226 227 229 230 230 231 232 231 233 236 240 242 245 249 256 263 269 275 282 289 294 297 298 301 302 303 303 300 296 292 288 286 285 285 286 288 292 296 300 303 306 308 311 313 312 310 311 317 322 322 322 318 314 313 314 314 315 317 318 317 316 315 315 314 314 313 313 313 313 313
224 225 225 225 225 225 224 224 225 225 226 227 227 226 226 228 229 231 232 232 233 232 231 233 237 239 242 245 249 255 262 268 273 279 285 291 295 297 300 301 302 303 301 298 295 291 289 288 287 288 289 293 297 300 303 306 308 309 309 308 310 317 323 325 320 316 314 312 313 316 316 313 312 314 316 315 315 314 313 313 312 310 308 306 305
227 227 227 227 227 227 226 226 227 227 227 228 228 227 228 229 230 231 232 233 233 231 232 236 239 240 241 244 248 254 260 265 270 275 281 286 291 295 299 300 302 304 304 303 300 296 294 292 291 292 292 295 299 300 302 305 305 306 307 310 316 322 323 323 321 318 316 313 310 312 315 315 313 315 316 314 312 311 309 307 305 302 301 301 301
230 230 230 230 229 229 229 229 229 229 229 229 229 229 230 231 231 231 233 235 234 233 236 240 240 239 240 244 248 253 258 262 266 271 276 280 286 292 297 299 302 305 306 306 304 300 297 295 295 295 296 298 299 300 301 303 303 306 310 316 320 320 319 321 321 318 316 315 313 314 318 319 315 313 313 311 309 307 304 302 301 302 303 305 307
234 235 234 233 232 232 232 231 231 231 231 231 231 232 232 233 233 233 234 235 234 235 238 240 238 238 241 244 248 252 255 258 262 266 271 275 281 288 294 298 302 306 307 307 306 302 298 296 296 296 297 298 297 298 299 301 304 308 313 317 317 315 317 320 318 315 316 317 319 320 320 318 315 314 314 314 312 310 308 306 307 309 312 314 315
239 239 238 237 237 237 236 235 234 234 234 234 234 234 235 235 235 235 235 236 236 239 241 240 238 240 242 244 247 251 254 257 259 262 266 271 276 283 290 295 301 306 307 306 305 303 299 296 295 295 295 295 294 294 297 301 305 309 312 314 314 314 318 319 315 315 317 320 321 322 321 321 320 320 320 319 316 314 313 313 316 320 322 322 320
242 242 242 243 243 242 241 240 239 239 238 238 238 237 237 238 238 238 238 239 241 244 243 241 240 242 243 244 247 250 252 255 258 260 262 267 273 279 284 290 298 305 307 305 304 301 298 295 293 293 293 291 290 292 296 301 304 306 309 311 313 316 319 317 314 316 320 322 323 323 323 325 325 323 323 322 319 318 318 320 324 325 322 318 316
246 246 248 249 248 248 246 245 244 243 244 244 242 241 241 242 242 241 241 242 244 244 243 241 242 243 244 245 247 249 252 255 257 259 260 263 269 274 277 284 294 302 304 304 303 300 298 295 292 291 291 290 290 293 297 299 300 302 305 309 312 316 317 314 314 318 321 322 323 324 325 327 327 325 324 323 322 323 324 327 328 324 317 313 312
251 252 253 253 252 252 250 250 249 249 249 249 247 246 245 245 244 243 244 244 244 243 243 243 244 245 245 246 248 250 253 255 257 258 258 261 266 270 272 279 289 297 300 302 302 300 298 295 292 290 289 288 289 291 293 293 295 298 303 307 310 313 313 311 314 318 319 319 321 324 326 326 325 323 323 324 327 330 331 331 329 327 323 320 318
254 255 255 254 254 254 253 253 253 253 253 253 251 249 248 247 246 246 246 246 245 245 245 244 245 246 247 247 249 251 253 254 256 257 258 259 262 265 270 277 284 289 293 298 301 301 299 296 292 289 287 286 286 287 288 290 291 294 299 304 307 307 307 309 312 314 314 316 320 322 323 322 321 322 323 328 333 336 334 332 330 330 332 329 325
252 253 253 253 253 254 254 254 255 255 254 254 253 252 252 251 250 248 248 247 246 247 247 247 247 248 249 249 251 252 253 254 255 256 257 258 259 262 267 274 278 281 287 293 298 299 298 295 292 288 286 285 284 284 284 286 287 291 296 300 301 300 302 306 310 310 311 314 317 319 320 319 319 322 326 331 336 337 335 333 333 334 335 333 327
243 245 247 249 251 252 254 255 255 255 255 255 255 256 255 254 253 251 250 249 248 248 248 248 249 250 250 251 252 253 254 254 254 255 257 258 257 258 263 269 272 276 282 289 294 296 295 293 290 286 283 283 284 284 284 284 286 290 294 295 294 296 300 304 306 307 309 312 313 316 318 319 320 323 328 333 337 336 334 333 336 337 336 333 329
238 242 245 248 250 252 254 256 256 257 257 257 258 258 258 257 256 254 253 252 251 250 250 250 250 251 252 252 254 255 255 255 255 256 256 257 257 256 259 264 269 273 279 284 289 292 293 291 289 284 281 282 283 282 282 284 287 290 291 290 291 294 299 302 302 304 307 309 310 313 316 318 321 325 330 334 335 333 332 334 337 339 337 334 332
242 246 248 250 253 254 255 256 257 257 258 258 258 258 258 258 257 256 255 253 252 252 251 251 252 253 254 255 256 257 258 257 257 256 255 256 256 256 257 260 264 270 276 281 286 288 290 290 287 281 277 278 277 275 277 283 286 285 285 285 289 293 296 297 298 301 303 306 307 310 314 317 321 324 329 333 333 331 331 334 337 338 338 336 336
251 254 256 258 258 258 258 258 259 259 258 259 259 259 259 259 259 258 257 256 255 254 254 254 255 256 257 258 258 259 259 259 258 256 254 254 255 256 256 257 261 266 270 274 280 285 288 289 286 281 276 272 269 271 277 282 279 277 279 283 287 291 292 293 294 297 300 302 305 308 311 314 318 322 326 329 330 331 333 335 337 338 339 337 337
261 264 268 270 268 267 266 266 265 264 264 263 263 263 262 262 260 259 257 256 256 255 255 255 256 257 258 259 260 260 260 260 259 256 253 253 255 257 257 257 258 260 263 268 274 280 284 284 281 278 273 268 267 271 276 277 275 276 280 284 286 287 287 288 290 293 296 300 302 305 309 311 313 318 322 324 326 330 334 336 337 338 339 338 337
268 272 275 276 275 275 275 273 271 271 270 269 269 268 268 267 266 264 263 260 259 258 258 258 258 260 262 263 263 262 262 263 263 260 257 255 257 258 258 257 257 259 262 267 271 275 277 276 274 270 265 263 266 270 271 272 275 279 282 282 282 282 282 283 286 290 294 298 300 302 305 307 310 314 318 320 323 328 332 334 336 338 338 338 337
272 274 274 276 277 278 278 278 277 276 275 274 273 272 271 270 269 269 268 266 265 264 263 263 264 265 266 266 266 266 266 267 269 268 264 260 258 258 257 255 256 259 262 264 266 268 270 271 270 268 263 261 265 267 267 269 273 277 278 278 278 277 278 280 282 286 289 293 296 298 301 303 308 312 314 317 320 325 329 332 334 336 337 336 336
270 273 275 277 278 278 279 279 278 277 277 276 275 274 273 272 272 271 271 269 269 268 267 267 267 267 267 268 268 268 269 270 271 269 264 259 255 255 255 255 256 258 259 259 260 264 267 269 269 267 264 264 267 269 269 271 272 273 274 275 276 276 277 278 280 283 286 290 293 295 299 303 306 309 312 314 317 321 325 329 332 334 335 335 334
269 274 278 279 278 278 278 277 277 278 278 277 277 277 277 275 275 274 273 272 271 271 271 271 270 270 270 270 270 270 270 270 269 266 262 257 255 255 256 257 257 258 258 257 258 262 265 267 267 267 266 267 271 273 273 272 272 273 273 273 274 276 277 278 279 282 285 288 291 294 297 301 304 307 310 313 315 317 321 325 328 331 332 333 333
272 275 277 277 277 277 277 276 277 278 278 279 279 279 278 277 276 275 274 274 273 272 271 271 271 271 272 272 272 271 270 269 269 268 264 259 257 257 259 259 259 260 259 257 259 262 264 265 267 269 271 273 274 276 275 273 273 274 274 274 274 275 276 276 277 280 284 287 289 292 296 299 302 306 309 311 313 315 318 321 325 328 329 330 331
274 276 276 276 277 277 277 277 278 279 280 280 280 279 278 278 278 277 276 274 273 273 272 271 270 270 271 272 273 273 272 271 269 267 264 260 257 257 259 260 261 261 259 256 258 261 264 268 271 275 277 277 277 277 277 275 273 273 274 275 275 275 274 274 275 278 282 286 289 292 295 298 301 303 306 308 311 313 316 319 323 325 327 327 328
275 276 278 278 279 279 279 280 281 282 282 282 280 279 278 278 278 278 277 275 274 273 273 272 272 271 270 271 272 274 274 273 268 264 260 259 259 259 260 262 263 259 252 249 252 255 259 265 271 275 278 279 277 277 276 274 272 272 273 275 276 275 273 273 275 277 281 284 287 291 294 296 299 301 303 306 308 310 313 316 320 323 325 325 326
277 278 279 280 280 281 282 283 284 285 284 282 281 279 278 278 278 279 279 278 277 275 274 272 271 271 270 270 269 269 269 269 268 264 259 257 258 260 260 259 258 252 243 241 245 250 256 263 269 274 277 277 276 276 275 273 271 272 273 274 274 274 273 272 274 277 279 282 286 289 291 294 297 299 302 304 306 308 310 313 316 319 322 323 324
279 280 280 281 282 283 284 284 285 285 283 282 281 280 279 280 280 280 279 279 278 277 276 275 273 271 270 269 269 268 264 261 262 264 265 262 260 259 257 254 253 252 249 248 248 250 255 261 267 272 275 275 274 275 275 272 271 272 273 273 272 272 272 272 274 276 278 282 286 288 289 291 295 298 300 302 303 306 308 311 312 315 319 321 322
282 282 282 283 284 284 284 284 284 283 283 282 281 281 281 281 281 281 280 279 279 279 279 278 277 276 274 270 268 267 264 258 253 251 252 251 247 246 247 249 252 254 257 258 258 258 261 265 269 272 274 274 274 275 273 270 270 271 272 272 272 271 271 272 273 275 278 281 284 287 288 290 293 296 298 299 301 303 306 308 309 312 316 318 320
284 284 284 284 284 283 283 283 283 283 283 282 282 282 282 282 282 282 281 281 281 280 279 279 279 278 277 275 270 265 261 259 256 251 248 246 244 244 246 249 252 255 258 261 262 264 267 270 272 273 274 274 275 275 273 270 269 270 270 271 271 270 270 271 273 275 278 281 284 286 287 289 292 294 295 297 299 302 303 305 308 310 314 317 318
284 284 284 283 283 283 283 283 282 283 283 283 283 283 283 283 284 284 283 283 282 281 280 279 278 278 278 278 273 265 259 257 259 260 259 258 256 256 256 258 259 260 262 263 265 267 270 272 274 275 275 275 275 275 273 270 268 268 268 269 269 269 270 271 273 275 278 281 283 285 286 288 290 291 292 295 297 300 301 303 306 310 313 315 316
284 284 284 284 284 284 284 284 283 283 283 284 284 284 284 284 283 283 283 283 283 283 282 281 280 280 280 278 274 269 264 261 261 263 265 266 264 263 262 262 262 262 263 264 265 268 270 272 273 275 275 275 275 274 272 269 266 265 265 267 268 268 269 270 272 275 277 280 282 283 285 286 287 288 290 293 295 297 298 300 303 308 310 312 314
283 284 284 285 286 286 285 284 283 282 284 286 286 286 286 286 285 286 286 286 286 286 286 286 285 283 282 280 277 274 271 269 267 267 267 268 269 267 266 265 264 264 265 265 266 267 269 270 272 272 272 272 272 271 269 266 263 262 263 265 266 268 268 269 271 275 277 279 281 282 283 284 285 286 289 291 292 294 295 298 301 304 307 310 312
282 283 285 286 288 288 286 284 283 283 286 289 290 290 291 291 292 294 294 295 296 296 294 293 291 288 284 282 279 276 275 275 276 275 274 273 272 271 270 269 268 268 268 268 267 268 268 269 269 268 268 268 268 267 265 263 262 261 262 263 265 267 268 270 272 275 277 278 280 281 281 282 284 286 288 289 291 292 294 296 299 302 306 308 310
283 284 285 288 290 291 290 289 290 291 293 294 295 296 297 297 298 299 298 298 297 295 292 291 288 286 284 282 280 278 277 278 279 280 280 280 279 278 277 275 273 272 270 270 269 268 267 267 266 265 265 266 266 266 264 262 261 261 261 262 264 266 269 270 272 275 276 277 278 278 280 282 283 285 287 288 289 290 291 294 297 300 304 306 307
285 286 288 292 295 297 298 299 300 302 303 303 303 303 302 301 298 297 296 294 292 290 289 289 287 286 286 285 283 282 281 280 279 279 279 279 280 281 280 279 278 276 273 271 270 268 267 266 265 265 265 266 266 266 265 262 260 260 261 262 264 266 268 271 273 274 274 274 276 277 280 281 282 284 286 287 288 288 289 292 295 297 301 304 306
299 300 302 303 303 304 305 305 306 305 304 303 302 300 298 296 294 293 292 290 289 289 288 288 288 288 287 286 286 285 285 283 282 281 281 281 281 281 281 281 280 279 278 276 274 271 269 267 266 266 266 267 268 268 266 262 259 258 260 262 264 267 269 271 272 271 271 273 275 277 279 280 282 284 285 285 285 286 288 291 292 295 298 302 303
307 308 308 307 306 305 305 303 302 301 299 298 296 294 293 293 292 291 290 289 289 289 289 288 289 290 290 291 291 291 291 291 291 290 291 290 289 288 286 284 283 282 282 282 281 278 275 272 270 269 269 269 269 267 263 259 257 257 259 261 264 266 268 269 269 269 270 272 275 277 279 280 282 283 284 285 286 287 288 290 290 291 296 300 300
306 306 304 302 301 301 300 299 299 298 297 296 296 295 294 293 292 291 291 291 291 291 291 291 292 293 294 296 298 298 299 301 301 302 301 300 299 298 295 292 290 289 287 286 286 285 282 279 275 271 270 270 269 266 261 257 255 256 259 261 264 265 266 266 267 268 269 271 273 276 277 279 280 281 282 284 286 287 287 288 288 289 292 295 296
304 303 303 302 301 300 299 299 299 298 298 298 297 296 295 295 293 292 292 292 292 293 293 294 296 297 299 300 301 302 304 306 307 307 307 307 306 304 301 299 298 297 295 293 292 289 286 283 278 274 272 272 271 267 262 257 256 257 259 261 263 264 264 265 265 267 268 270 272 273 275 276 278 281 282 283 285 286 286 286 286 286 289 290 290
307 306 305 305 303 302 301 300 299 299 299 299 298 297 297 296 295 295 295 295 294 294 294 295 295 296 297 299 301 303 305 308 309 311 311 310 309 307 304 303 302 300 299 298 296 293 290 287 283 279 277 275 273 270 265 261 259 260 260 262 263 263 263 264 265 266 268 269 269 270 272 274 277 279 281 283 284 285 285 285 284 283 285 286 286
306 305 305 305 304 304 304 303 303 303 302 300 299 299 298 297 297 297 296 296 295 294 294 295 296 297 298 300 302 304 306 309 310 311 311 310 309 306 305 304 303 301 300 299 298 295 293 291 288 285 283 280 276 273 269 265 263 264 263 263 263 262 263 264 266 267 267 267 267 269 271 274 277 279 281 283 284 283 283 283 282 281 282 283 282
306 306 306 306 305 305 306 305 305 304 303 302 301 300 298 298 298 297 296 296 296 295 295 296 297 298 300 302 304 306 308 308 309 309 309 309 309 309 308 307 306 304 303 301 299 297 295 293 290 287 284 282 279 276 273 270 269 268 266 264 263 263 264 265 265 265 266 267 268 270 272 274 277 280 281 282 283 283 282 280 279 278 279 279 277